Location: *
(50.9167°S, 179.4000°W)
Time: 18:22:08
(UTC+00:00)

CZ-2C R/B - Pass Details

Date: 20 June 2024
Orbit: 665 x 779 km, 98.4° (Epoch: 18 July)

Event Time Altitude Azimuth Distance (km) Brightness Sun altitude
Rises 05:32:29 0° 176° (S) 3,309 5.5 -14.0°
Reaches altitude 10° 05:35:35 10° 195° (SSW) 2,374 5.0 -14.4°
Maximum altitude 05:38:51 17° 233° (SW) 1,924 5.0 -14.9°
Drops below altitude 10° 05:42:04 10° 272° (W) 2,348 6.2 -15.4°
Sets 05:45:08 0° 291° (WNW) 3,255 7.6 -15.8°
